Home   Weather   Leonding   Past weeks

Flag for Austria Past Weather in Leonding, Upper Austria, Austria — Yesterday and Last 2 Weeks

Now
43 °F

Light rain. Broken clouds.


Feels Like: 39 °F
Forecast: 39 / 47 °F
Wind: 7 mph from West

Location: Linz / Hoersching-Flughafen

Current Time: Apr 27, 2017 at 1:33:30 pm

Latest Report: Apr 27, 2017 at 12:50 pm


Visibility: N/A

Pressure: 29.95 "Hg

Humidity: 81%

Dew Point: 37 °F

Location of LeondingLocation

Past Weather in Leonding — Graph

°F

Leonding Temperature Yesterday

Maximum temperature yesterday: 52 °F (at 12:20 am)
Minimum temperature yesterday: 41 °F (at 11:50 pm)
Average temperature yesterday: 48 °F

High & Low Weather Summary for the Past Weeks

 TemperatureHumidityPressure
High64 °F (Apr 25, 2:50 pm)100% (Apr 18, 8:50 pm)30.51 "Hg (Apr 18, 8:50 pm)
Low28 °F (Apr 20, 5:20 am)39% (Apr 24, 3:50 pm)29.68 "Hg (Apr 26, 2:50 am)
Average45 °F71%30.06 "Hg
* Reported Apr 12 12:20 pm — Apr 27 12:20 pm, Leonding, Weather by CustomWeather, © 2017

Note: Actual official high and low records may vary slightly from our data, if they occured in-between our weather recording intervals... More about our weather records

Advertising

Leonding Weather History for the Previous 24 Hours

Scroll right to see more
 ConditionsComfort  
Time TempWeatherWind HumidityBarometerVisibility
12:20 pm
Thu, Apr 27
41 °FBroken clouds.6 mph87%29.95 "HgN/A
11:50 am43 °FBroken clouds.6 mph87%29.95 "HgN/A
11:20 am41 °FBroken clouds.6 mph87%29.95 "HgN/A
10:50 am41 °FPartly sunny.5 mph87%29.95 "HgN/A
10:20 am41 °FLight rain. Broken clouds.6 mph87%29.92 "HgN/A
9:50 am41 °FLight rain. Partly sunny.5 mph87%29.92 "Hg6 mi
9:20 am41 °FLight rain. Broken clouds.6 mph87%29.92 "HgN/A
8:50 am41 °FBroken clouds.6 mph87%29.92 "HgN/A
8:20 am41 °FPartly sunny.5 mph93%29.89 "HgN/A
7:50 am41 °FLight rain. Partly sunny.2 mph93%29.89 "HgN/A
7:20 am41 °FLight rain. Partly sunny.2 mph93%29.89 "HgN/A
6:50 am39 °FPartly sunny.2 mph93%29.86 "HgN/A
6:20 am39 °FLight rain. Partly sunny.3 mph93%29.86 "HgN/A
5:50 am39 °FLight rain. Partly cloudy.2 mph93%29.86 "HgN/A
5:20 am41 °FLight rain. Partly cloudy.1 mph87%29.86 "HgN/A
4:50 am39 °FLight rain. Passing clouds.1 mph93%29.86 "HgN/A
4:20 am39 °FPartly cloudy.3 mph93%29.86 "HgN/A
3:20 am41 °FLight rain. Passing clouds.3 mph93%29.86 "HgN/A
2:50 am41 °FLight rain. Passing clouds.5 mph93%29.86 "HgN/A
2:20 am41 °FLight rain. Partly cloudy.5 mph93%29.86 "HgN/A
1:50 am41 °FLight rain. Partly cloudy.1 mph93%29.86 "HgN/A
1:20 am41 °FLight rain. Passing clouds.1 mph93%29.86 "HgN/A
12:50 am41 °FLight rain. Partly cloudy.1 mph93%29.89 "HgN/A
12:20 am41 °FLight rain. Passing clouds.2 mph93%29.89 "HgN/A
11:50 pm
Wed, Apr 26
41 °FLight rain. Passing clouds.1 mph93%29.89 "HgN/A
11:20 pm43 °FRain. Passing clouds.3 mph87%29.86 "HgN/A
10:50 pm43 °FSprinkles. Partly cloudy.2 mph93%29.86 "HgN/A
10:20 pm43 °FSprinkles. Passing clouds.3 mph93%29.86 "HgN/A
9:50 pm43 °FPassing clouds.3 mph100%29.86 "HgN/A
9:20 pm45 °FPartly cloudy.2 mph93%29.86 "Hg5 mi
8:50 pm45 °FPartly cloudy.1 mph93%29.86 "HgN/A
7:50 pm45 °FLight rain. Broken clouds.1 mph93%29.86 "HgN/A
7:20 pm45 °FLight rain. Partly sunny.2 mph93%29.83 "Hg6 mi
6:50 pm45 °FLight rain. Partly sunny.2 mph93%29.83 "Hg5 mi
6:20 pm45 °FLight rain. Broken clouds.3 mph87%29.83 "Hg5 mi
5:50 pm45 °FLight rain. Broken clouds.3 mph87%29.83 "HgN/A
5:20 pm46 °FLight rain. Partly sunny.3 mph82%29.80 "HgN/A
4:50 pm46 °FLight rain. Partly sunny.5 mph76%29.80 "HgN/A
4:20 pm48 °FBroken clouds.7 mph76%29.80 "HgN/A
3:50 pm48 °FBroken clouds.8 mph76%29.80 "HgN/A
3:20 pm48 °FPartly sunny.10 mph76%29.77 "HgN/A
2:50 pm50 °FPartly sunny.9 mph76%29.77 "HgN/A
2:20 pm50 °FPartly sunny.8 mph76%29.77 "HgN/A
1:50 pm50 °FBroken clouds.2 mph71%29.74 "HgN/A
1:20 pm50 °FBroken clouds.6 mph71%29.74 "HgN/A
Weather by CustomWeather, © 2017

See weather overviewHow to use our weather pages